Weather History for KMSO - August, 2012

Change the Weather History Date:

Friday, August 17, 2012

  Actual Average Record
Temperature  
Mean Temperature 69 °F 68 °F  
Max Temperature 90 °F 85 °F 99 °F (1967)
Min Temperature 48 °F 50 °F 38 °F (2002)
Degree Days  
Heating Degree Days 0 1  
Month to date heating degree days 1 17  
Since 1 June heating degree days 204 215  
Since 1 July heating degree days 13 55  
Cooling Degree Days 4 4  
Month to date cooling degree days 100 87  
Year to date cooling degree days 362 281  
Since 1 June cooling degree days 362 275  
Growing Degree Days 18 (Base 50)    
Moisture  
Dew Point 38 °F    
Average Humidity 39    
Maximum Humidity 68    
Minimum Humidity 10    
Precipitation  
Precipitation 0.00 in 0.04 in 0.53 in (1930)
Month to date precipitation 0.05 0.61  
Year to date precipitation 10.40 9.45  
Snow  
Snow 0.00 in - - ()
Month to date snowfall 0.0  
Year to date snowfall 29.2  
Since 1 July snowfall 0.0  
Snow Depth 0.00 in    
Sea Level Pressure  
Sea Level Pressure 30.05 in    
Wind  
Wind Speed 5 mph (NNE)    
Max Wind Speed 22 mph    
Max Gust Speed 26 mph    
Visibility 10 miles    
Events      
T = Trace of Precipitation, MM = Missing Value Source: NWS Daily Summary

Daily Weather History Graph

Daily Weather History Graph

Search for Another Location

Airport or City:

Trip Planner

Search our weather history database for the weather conditions in past years. The results will help you decide how hot, cold, wet, or windy it might be!

Date:

Astronomy

Aug. 17, 2012 Rise Set
Actual Time 6:37 AM MDT 8:42 PM MDT
Civil Twilight 6:04 AM MDT 9:15 PM MDT
Nautical Twilight 5:23 AM MDT 9:56 PM MDT
Astronomical Twilight 4:37 AM MDT 10:41 PM MDT
Moon 6:48 AM MDT (8/17) 8:21 PM MDT (8/17)
Length of Visible Light 15h 11m
Length of Day
14h 05m
New Moon, 0% of the Moon is Illuminated
Aug 17
New Moon
Aug 24
First Quarter
Aug 31
Full
Sep 8
Last Quarter
Sep 15
New

Hourly Weather History & Observations

Time (MDT) Temp. Dew Point Humidity Pressure Visibility Wind Dir Wind Speed Gust Speed Precip Events Conditions
12:53 AM 60.1 °F 39.0 °F 46% 30.04 in 10.0 mi NNW 3.5 mph - N/A   Clear
1:53 AM 57.9 °F 39.9 °F 51% 30.05 in 10.0 mi Calm Calm - N/A   Clear
2:53 AM 54.0 °F 39.9 °F 59% 30.06 in 10.0 mi Calm Calm - N/A   Clear
3:53 AM 53.1 °F 39.9 °F 61% 30.07 in 10.0 mi Calm Calm - N/A   Clear
4:53 AM 52.0 °F 39.9 °F 63% 30.08 in 10.0 mi Calm Calm - N/A   Clear
5:53 AM 51.1 °F 41.0 °F 68% 30.09 in 10.0 mi Calm Calm - N/A   Clear
6:53 AM 51.1 °F 39.9 °F 66% 30.11 in 10.0 mi Calm Calm - N/A   Clear
7:53 AM 54.0 °F 41.0 °F 62% 30.13 in 10.0 mi Calm Calm - N/A   Clear
8:53 AM 57.9 °F 41.0 °F 53% 30.13 in 10.0 mi Calm Calm - N/A   Clear
9:53 AM 62.1 °F 41.0 °F 46% 30.12 in 10.0 mi Calm Calm - N/A   Clear
10:53 AM 68.0 °F 41.0 °F 37% 30.11 in 10.0 mi Variable 3.5 mph - N/A   Clear
11:53 AM 73.0 °F 43.0 °F 34% 30.09 in 10.0 mi Calm Calm - N/A   Clear
12:53 PM 78.1 °F 41.0 °F 27% 30.07 in 10.0 mi Calm Calm - N/A   Clear
1:53 PM 84.9 °F 37.9 °F 19% 30.04 in 10.0 mi NE 4.6 mph - N/A   Clear
2:53 PM 87.1 °F 36.0 °F 16% 30.03 in 10.0 mi NE 5.8 mph - N/A   Clear
3:53 PM 89.1 °F 36.0 °F 15% 30.01 in 10.0 mi NNE 13.8 mph - N/A   Clear
4:53 PM 89.1 °F 36.0 °F 15% 30.00 in 10.0 mi North 13.8 mph 20.7 mph N/A   Clear
5:53 PM 88.0 °F 35.1 °F 15% 29.99 in 10.0 mi NNE 17.3 mph 25.3 mph N/A   Clear
6:53 PM 86.0 °F 25.0 °F 11% 29.98 in 10.0 mi North 17.3 mph 26.5 mph N/A   Clear
7:53 PM 84.9 °F 27.0 °F 12% 29.99 in 10.0 mi North 11.5 mph - N/A   Clear
8:53 PM 81.0 °F 32.0 °F 17% 29.99 in 10.0 mi North 11.5 mph 21.9 mph N/A   Clear
9:53 PM 73.9 °F 35.1 °F 24% 30.02 in 10.0 mi Variable 5.8 mph - N/A   Clear
10:53 PM 72.0 °F 33.1 °F 24% 30.02 in 10.0 mi NW 5.8 mph - N/A   Clear
11:53 PM 66.0 °F 35.1 °F 32% 30.04 in 10.0 mi Calm Calm - N/A   Clear